CAPE
998 1137 1121 1184 1343 1624 1900 2225 2245 2276 2851 2876 2885 3067 3186 3204 3330 3345 3430 3414 3295 3167 3200 3108 3049 3291 2971 2921 2963 3063 3098 3172 3111 3103 3032 3049 3019 3098 3073 2974 2883 2776 2670 2574 2891 3026 2859 2604 2950 2913 3102 2996 2937 3179 3043 2905 2939 2729 2903 3061 2880 2708 2950 2906 2943 3084 2901 2768 2732 2684 2466 2430 2341 2308 2350 2483 2092 2232 1953 2186 2162 1954 1748 1563 1716
1009 1091 1126 1248 1130 1434 1738 2159 2377 2621 2888 2863 3060 3038 3127 3264 3264 3255 3238 3129 2956 2913 3146 3246 3175 3222 3150 3173 3265 3258 3123 3050 3029 2964 2965 2727 2927 2815 2828 2774 2400 2737 2630 2552 2635 2517 2567 2728 2771 2814 2778 2796 2803 2831 2865 2818 2668 2861 2883 2642 2990 2860 2920 2820 2766 2835 2902 2808 2733 2617 2338 2209 2526 2286 2350 2634 2188 2259 2181 2193 2263 1884 1801 1514 1734
1123 1099 1038 1110 1282 1337 1678 2176 2374 2777 2920 3066 3087 3117 3179 3180 3135 3031 2914 2828 2871 3051 3085 3255 3246 3266 3237 3380 3303 3196 3145 3072 3086 3020 2858 2768 2433 2767 2773 2674 2572 2614 2510 2507 2431 2415 2461 2462 2656 2666 2790 2773 2619 2496 2581 2529 2624 2656 2672 2942 2950 2741 2631 2853 2676 2625 2515 2336 2866 2789 2305 2307 2466 2574 2223 2351 2431 2201 1632 1646 1887 2046 2010 1442 1730
1173 1222 1247 1192 1170 1352 1478 1872 2400 2848 3064 3197 3064 3076 3013 2984 2926 2867 2910 2996 3056 3022 3123 3146 3188 3206 3169 3043 3190 3236 3204 3200 3087 3044 2877 2842 2510 2527 2484 2776 2705 2439 2406 2321 2464 2571 2493 2502 2588 2513 2419 2491 2428 2569 2417 2405 2514 2522 2497 2764 2697 2402 2547 2539 2448 2487 2404 2444 2543 2760 2781 2647 2820 2453 2510 2289 2421 2066 1969 1927 1863 2059 2146 1654 1518
1281 1377 1270 1137 1220 1145 1278 1688 2291 2600 2836 3108 2915 2848 2852 2817 2768 2781 2741 3002 3000 3026 3185 3066 3121 3058 2964 2999 2909 2764 2616 2826 2590 2626 2726 2420 2453 2356 2562 2642 2487 2395 2257 2403 2429 2328 2530 2499 2473 2562 2308 2514 2342 2493 2584 2526 2689 2704 2591 2444 2298 2198 2414 2521 2581 2535 2554 2664 2912 2438 2281 2526 2551 2643 2488 2526 2064 1810 2003 2056 2197 2264 2173 2011 1848
1376 1547 1584 1354 1399 1152 1402 1713 1865 2326 2686 2937 2757 2746 2798 2652 2762 2876 2976 2947 3041 3079 3159 3084 3061 3060 2964 2599 2687 2953 2649 2990 2751 2495 2655 2557 2336 2480 2460 2470 2640 2614 2427 2414 2567 2862 2738 2472 2479 2463 2312 2335 2180 2245 2669 2459 2584 2440 2314 2304 2179 2341 2389 2273 2520 2593 2942 2793 2477 2123 2146 2447 2586 2288 2432 2364 2181 2046 2048 2418 2331 2432 2194 2008 1757
1473 1548 1636 1511 1501 1666 1363 1860 2132 2430 2918 2920 2895 2789 2733 2982 3089 3096 2956 3011 3070 3030 3064 3031 3019 2870 2764 2595 2874 2913 2826 2863 2650 2466 2424 2308 2253 2356 2530 2460 2505 2877 2629 2483 2424 2448 2643 2480 2430 2190 2211 2159 2453 2328 2317 2310 2047 2145 2249 2115 1838 2190 2256 2180 2581 2767 2591 2027 2058 2086 2103 2130 2370 1943 2636 2295 1979 2108 2114 2554 2292 2262 2345 1956 1840
1402 1539 1730 1924 1543 1656 1996 2291 2284 2734 2775 2727 2800 2637 2835 2897 2852 2981 2935 3033 2996 2990 2973 2907 2920 2744 2856 2928 2861 2702 2612 2752 2768 2564 2423 2486 2535 2395 2439 2626 2561 2469 2499 2491 2609 2464 2474 2486 2548 2360 2542 2340 2208 2186 2378 2240 1883 2068 1862 1858 2249 2384 2445 2584 2728 2682 2402 1920 1967 2010 2134 2157 2221 1947 2026 2284 2447 2572 2407 2536 2232 2149 2152 1826 1934
1360 1604 1892 2048 2167 2316 2700 2739 2739 2816 2919 2864 2838 2848 3024 3030 2876 2854 2901 2983 2877 2938 2872 2890 2915 2860 2647 2640 2821 2339 2734 2781 2531 2498 2427 2556 2501 2453 2418 2325 2508 2463 2432 2679 2710 2626 2376 2228 2353 2301 2281 1725 1999 2163 2276 2238 2252 2169 2144 2168 2207 2642 2559 2571 2608 2360 1893 1973 2051 2026 2046 2050 2003 2207 2565 2336 2568 2564 2354 2002 2196 2151 2244 1840 1810
1225 1512 1787 1982 2170 2748 2736 2834 2858 2891 2870 2860 2871 2980 2956 2892 2829 2986 2972 2810 2831 2894 2862 2680 2888 2882 2386 2366 2695 2666 2641 2531 2519 2772 2597 2357 2483 2331 2432 2202 2228 2536 2617 2823 2729 2526 2413 2378 2457 2152 1763 2036 2063 2166 2190 2090 2165 2289 2093 2078 2297 2607 2575 2529 2617 2462 1987 2032 2252 2480 2526 2182 2068 1948 1937 1986 2356 2394 2362 2292 2247 2146 2110 1903 1841
1374 1382 1691 1914 2207 2730 2818 2904 2928 2886 2887 3032 3048 2949 2759 2842 2891 2945 2741 2722 2719 2725 2610 2665 2738 2542 2506 2619 2480 2539 2418 2498 2230 2456 2400 2272 2403 2309 2297 2247 2247 2118 2327 2618 2511 2046 2134 2018 2140 2188 2032 1916 2158 2190 2144 2137 2077 2111 1951 2002 2109 2576 2630 2520 2218 1940 1996 2062 2180 2254 2285 2528 2099 2181 2240 2305 2237 2141 2270 2092 2186 2119 1765 1735 1777
1486 1616 1712 1911 2342 2766 2783 2873 2912 2890 2982 3002 3025 2855 2763 2854 2800 2633 2658 2608 2581 2562 2678 2830 2838 2564 2446 2625 2656 2370 2551 2415 2376 2436 2558 2417 2239 2266 2349 2227 2198 2248 2363 2567 2394 2268 2232 1828 2053 2137 2118 2070 2150 2030 2025 2053 2034 2026 2115 2728 2610 2540 2641 2560 1925 1958 2053 2112 2295 2072 2051 2205 2288 2160 2222 2219 2235 2294 2309 2150 1894 1849 1838 1684 1638
1598 1782 1912 2066 2640 2717 2785 3003 2943 2926 2960 2978 2876 2844 2751 2776 2651 2689 2607 2525 2592 2634 2715 2806 2771 2588 2563 2589 2392 2292 2467 2241 2357 2444 2741 2432 2277 2237 2226 2039 1996 2155 2358 2390 2236 2122 1887 1898 1771 1794 2242 2006 2062 2077 2044 2010 1927 2177 2595 2648 2596 2605 2646 2359 1805 1851 1890 1930 2009 2038 2137 2320 2359 2375 2218 2213 2216 2086 2034 2027 2072 1892 1714 1741 1687
1643 1871 2012 2129 2563 2728 2807 2961 2890 2882 2951 2909 2882 2895 2645 2637 2620 2576 2677 2717 2535 2590 2703 2778 2638 2501 2494 2414 2405 2543 2272 2153 2332 2244 2160 2321 2161 2084 2119 1880 2022 1899 2222 2389 2247 1964 1997 1789 1782 1675 1843 2142 1878 1923 1842 2022 2092 2009 2090 2523 2505 2562 2664 2450 2220 2007 2141 2228 2376 2134 2294 2711 2572 2466 2150 2163 2169 2149 2140 2110 1981 1886 1859 1763 1642
1646 1871 1972 2077 2466 2426 2538 2768 2895 2874 2865 2858 2869 2637 2638 2736 2601 2545 2657 2524 2558 2526 2483 2672 2479 2397 2468 2616 2540 2364 2520 2456 2346 2237 2256 2284 2110 2232 2116 2055 1971 1992 2370 2173 1981 1829 2033 1952 1836 1852 1863 1826 1654 1839 1846 1928 2048 2125 2229 2003 2464 2668 2439 1889 1812 1959 2117 2224 2185 1982 2175 2436 2397 2426 2156 2182 2112 2050 2012 2004 1836 1855 1823 1873 1928
1694 1888 2000 2092 2141 2405 2458 2638 2871 2799 2798 2812 2706 2680 2691 2393 2409 2470 2392 2385 2612 2404 2687 2687 2548 2528 2582 2462 2204 2129 2219 2559 2473 2482 2490 2147 2278 2192 1984 2036 2055 2041 2222 1908 2205 2073 2013 1855 1821 1812 1994 1857 1936 1970 2070 1912 2136 2226 2254 2360 2491 2614 2552 2024 1739 1762 1874 2030 2232 2384 2275 2433 2362 2262 2099 1985 2008 2019 1994 1986 1995 1948 2006 1987 1896
1731 1899 2030 2042 2178 2279 2218 2482 2674 2700 2679 2622 2686 2686 2518 2278 2114 2458 2471 2482 2573 2600 2644 2613 2573 2654 2580 2390 2342 2204 2641 2524 2420 2508 2473 2500 2376 2187 2293 2101 2233 2257 2081 2117 2104 2401 2204 1969 1821 1816 1943 1925 1902 1990 1952 1883 1910 2054 2279 2223 2299 2669 2559 2187 1860 2005 2304 2470 2218 2078 2269 2515 2410 2038 1903 1887 1947 2006 2058 2032 2028 2006 2004 1988 1969
1772 1866 1983 2115 2198 2126 2052 2329 2412 2356 2374 2685 2591 2559 2382 2321 2353 2613 2510 2533 2549 2620 2690 2646 2588 2557 2585 2452 2439 2322 2410 2250 2316 2183 2309 2443 2568 2404 2014 1961 2278 2167 1973 2168 2176 1931 2057 1944 1727 1839 1875 1972 1930 1965 1955 2021 1988 1919 2109 2106 2479 2630 2567 2344 2084 2310 2464 2428 2180 2507 2325 2183 2328 1856 1928 1929 1961 2009 1948 1915 2005 2034 1965 1892 1875
1761 1842 1967 2111 2169 2113 2202 2336 2130 2375 2284 2263 2136 2534 2457 2364 2381 2667 2653 2571 2486 2494 2752 2782 2762 2602 2664 2609 2601 2326 2289 2295 2108 2057 1896 2446 2442 2259 2102 2287 2222 2076 2088 2100 2357 2220 1984 2001 1756 1935 1975 1954 2018 2007 1918 2150 2204 2207 1870 1931 2273 2524 2642 2289 1980 2024 2347 2170 2170 2040 2408 2456 2230 2066 1969 1961 2036 2057 2136 2224 2112 2111 1960 2007 1974
1755 1841 1964 2043 2113 2148 2251 2285 2285 2393 2188 1977 1888 2091 2341 2316 2552 2577 2663 2622 2556 2588 2650 2536 2659 2757 2456 2318 2458 2623 2349 2329 2325 2239 2079 2494 2357 2365 2144 2078 2007 2286 2297 2413 2439 2490 2247 1978 1794 1942 1882 2039 2040 2058 2008 2022 2248 2205 2146 1933 2099 2725 1769 1774 1806 1911 2254 2587 2430 2434 2676 2355 2102 2004 2022 2126 2233 2258 2305 2201 1938 1912 2016 1750 1876
1722 1821 1908 1992 2062 2157 2257 2225 2293 2373 2102 1935 1954 2067 2413 2333 2380 2455 2673 2631 2588 2437 2515 2258 2432 2443 2764 2506 2818 2290 2169 2375 2534 2337 2407 2589 2466 2220 2448 1953 2214 2555 2395 2269 2337 2130 1940 2024 1961 2056 2053 2106 2037 2147 1881 2084 2042 2255 2264 2169 2590 1544 1642 1713 1937 2386 2528 2588 2492 2535 2437 2498 2011 2080 2157 2154 2246 2275 2250 2128 2077 2102 2102 1717 1944
1621 1750 1808 1871 1960 2052 2158 2162 2239 2272 2125 2058 2004 2055 1948 2198 2184 2145 2330 2389 2379 2663 2793 2804 2839 2441 2610 2568 2612 2675 2216 2489 2857 2838 3062 2537 2273 2260 2267 2255 2319 2409 2726 2273 2271 2236 2081 1837 2020 2050 2153 2070 2215 2043 2199 1819 2095 2263 2381 2560 1466 1543 1591 1741 1949 2250 2170 2422 2546 2613 2667 2103 2100 2083 2192 2194 2074 2003 2017 2227 2116 2041 1763 1519 1970
1403 1576 1668 1713 1850 1893 1993 2068 2160 2189 2122 2165 2024 2109 1986 1821 1845 2052 2433 2250 2370 2877 2398 2222 2125 2227 2229 2286 2120 2076 2275 2363 2754 2894 2909 2328 2373 2142 2254 2053 2324 2421 2570 2445 2243 2209 2130 1654 1661 1799 2075 2948 2278 2102 2057 2082 2726 2782 2599 1584 1586 1539 1505 1663 1777 1833 1880 2244 2200 2293 2264 2131 2027 2320 2218 2015 2261 2238 2188 2286 2214 1807 1580 1715 1728
1183 1348 1504 1628 1749 1787 1873 2014 2027 2134 2136 2103 2130 2004 1927 1929 1975 2153 2184 2265 2148 2159 2060 2015 2144 2198 2154 2034 1928 2107 2157 2334 2514 2688 2778 2141 2346 2087 2126 2251 2400 2153 2272 2699 2938 2203 3097 2448 2439 2997 2925 2709 2177 2236 2132 2146 2138 1915 1539 1515 1601 1592 1505 1510 1738 1716 1965 2464 2160 2319 2217 2093 2027 2162 2312 2242 2277 2242 2036 2320 1853 1819 1867 1767 1610
1133 1205 1389 1625 1741 1789 1878 1859 1944 2142 2155 2218 2188 2078 1976 2010 2105 2106 2072 2025 2076 2058 1919 2012 2090 2101 1966 1874 1943 2014 2090 2193 2112 2171 2213 2235 2248 2274 2350 2441 2412 2596 2706 2337 2283 2275 2450 2493 2464 2338 2229 2340 2247 2010 1930 2084 2377 2204 2050 1544 1504 1535 1537 1469 1461 1681 1905 2092 2346 2316 2176 2160 2137 2029 1897 1980 2266 2150 2206 2353 2018 1981 1834 1769 2082
1008 1030 1237 1517 1527 1669 1855 1860 1970 2059 2112 2180 2189 2292 2142 2070 2130 2166 2098 2019 2054 2021 1946 1937 2007 1923 1735 1923 1894 1911 2082 2154 2010 2092 2149 2250 2244 2339 2393 2425 2273 2153 2353 2165 2009 1964 1937 1975 2012 2089 2095 2168 2202 2079 2099 2460 2086 1990 1976 1775 1344 1461 1472 1415 1414 1647 1839 2043 2679 2219 2230 2226 2195 2352 2238 2085 1916 2039 2112 2337 2038 1863 2058 2081 2224
910 880 1116 1406 1422 1662 1832 1866 1967 1978 2062 2113 2152 2167 2165 2062 2114 2117 2074 2006 2008 1895 1855 1881 1882 1717 1783 1994 1823 1894 2029 2130 2009 2016 2121 2163 2131 2162 2190 2155 2132 2068 2040 1892 1789 1753 1774 1831 1877 2063 2130 2198 2232 1943 1918 1686 1861 2002 1856 1854 1576 1318 1260 1273 1400 1636 1821 2034 2692 2199 2165 2224 2095 2145 2280 2295 1951 2291 2327 2310 2044 1916 2112 2232 2265
759 769 1095 1287 1393 1499 1714 1762 1868 1834 1993 2051 2082 2079 2098 2074 2097 2420 2068 1978 1950 1845 1790 1814 1756 1750 1871 2246 1990 1879 1968 2020 1954 1983 2020 2100 2106 2152 2145 2088 2178 2193 2140 1950 1731 1764 1827 1824 1834 1936 2099 2031 1926 1548 1521 1750 1624 1744 1689 1756 1641 1360 1152 1235 1308 1510 1712 1882 2268 2302 2104 2158 2218 2030 2202 2235 2214 2397 2532 2392 2419 2388 2230 2349 2285
606 764 1062 1261 1351 1521 1519 1593 1758 1764 1852 1951 2037 2008 2023 2055 2130 2114 1989 2407 1885 1833 1740 1676 1645 1835 1941 2376 2260 1876 1904 1899 1922 1986 2049 2114 2230 2310 2264 2315 2100 2149 2106 1886 1658 1612 1702 1706 1896 2066 2163 2305 2319 1912 1259 1515 1548 1561 1555 1628 1739 1470 1164 1246 1331 1434 1618 1768 1924 2394 2241 2231 2316 2274 2157 2185 2278 2273 2352 2482 2343 2429 2415 2313 2425
522 750 1002 1182 1325 1470 1440 1507 1628 1607 1686 1835 1928 1928 1887 1982 2046 2023 1929 2297 1820 1864 1816 1764 1593 1653 1768 2050 2455 1827 1878 1843 1880 1937 2021 2097 2235 2288 2311 2259 2283 2103 2111 1804 1712 1841 1827 1809 1767 1920 2106 2234 2230 1820 2470 1236 1359 1415 1383 1370 1546 1571 1247 1286 1345 1482 1629 1729 1861 2286 2263 2202 2302 2323 2262 2194 2290 2362 2364 2434 2402 2329 2389 2405 2334
535 754 956 1098 1314 1386 1406 1460 1568 1560 1606 1719 1774 1787 1748 1872 1962 1961 1895 2075 1804 1813 1817 1864 1812 1675 1726 1794 2294 2155 1918 1763 1752 1854 1908 1956 2094 2184 2260 2226 2105 1826 1787 1759 1813 2200 2028 1974 1831 1943 2145 2077 1992 1959 2311 1641 1190 1274 1561 1232 1409 1466 1244 1276 1319 1416 1556 1725 1810 2012 2412 2141 2160 2120 2175 2129 2166 2236 2395 2340 2391 2344 2376 2232 2264
541 738 894 1040 1203 1288 1274 1352 1448 1403 1521 1595 1657 1647 1678 1773 1890 1898 1889 1942 1796 1770 1801 1819 2021 1881 1761 1764 2017 2135 2480 1928 1737 1728 1787 1782 1803 1846 1890 1848 1701 1287 1356 1541 1685 1922 2159 2009 2238 2466 2526 2625 2402 2273 2179 1980 1549 1188 1368 1234 1370 1350 1266 1281 1327 1444 1616 1684 1759 1848 2021 2431 2376 2329 2251 2245 2248 2269 2275 2258 2340 2337 2267 2260 2135
520 704 849 975 1130 1192 1149 1257 1314 1307 1374 1488 1564 1619 1654 1701 1778 1854 1834 1852 1794 1729 1788 1802 1870 1905 1829 1783 1830 2044 2743 1902 1900 1822 2372 1709 1629 1549 1506 1671 1345 1119 1400 1634 1966 2134 2182 2274 2077 2315 2009 2276 2211 1752 2326 1768 1683 1104 1299 1219 1268 1252 1219 1306 1364 1452 1607 1709 1726 1811 1950 2184 2515 2699 2230 2294 2269 2211 2201 2234 2218 2303 2287 2212 2178
518 695 803 902 1038 1074 1062 1167 1197 1225 1248 1321 1409 1474 1528 1578 1639 1743 1762 1759 1757 1683 1780 1813 1888 1876 1838 1679 1793 1956 2312 1999 1824 1804 1765 1686 1533 1346 1217 1166 1170 1276 1671 2255 2128 1984 2139 2040 2165 1680 2632 2203 1585 1665 1734 1238 975 1127 1224 1207 1279 1327 1288 1272 1322 1389 1544 1661 1786 1773 1924 2035 2224 2344 2506 2622 2426 2372 2291 2288 2292 2278 2216 2237 2195
528 655 757 820 1018 955 977 1103 1238 1138 1388 1162 1310 1307 1362 1437 1489 1585 1674 1703 1724 1642 1603 1687 1770 1782 1761 1662 1485 1763 2154 1980 1954 1823 1789 1694 1472 1206 1078 951 1011 1525 1709 2181 2392 2288 2139 2171 1956 1490 1612 1631 1952 1748 2317 1323 685 945 1134 1315 1302 1264 1295 1309 1288 1343 1414 1607 1741 1818 1892 2063 2182 2205 2370 2471 2601 2551 2517 2302 2358 2345 2320 2193 2254
491 615 702 741 869 843 1012 1031 1157 1100 1190 1070 1133 1206 1259 1326 1394 1596 1550 1618 1685 1692 1595 1570 1652 1683 1669 1615 1493 1428 2086 1820 1850 1885 1817 1748 1391 1000 780 906 1323 1765 1923 2282 2541 2121 2074 2183 2273 1580 1978 1400 2185 1189 1038 773 485 701 890 1205 1250 1698 1299 1311 1304 1316 1342 1477 1660 1803 1858 2006 2096 2199 2433 2435 2401 2374 2290 2469 2513 2539 2467 2387 2351
447 570 646 694 794 767 1131 959 1072 1072 1086 1034 1053 1140 1224 1264 1352 1514 1457 1522 1605 1664 1659 1601 1584 1632 1649 1595 1512 1448 2089 1597 1665 1696 1731 1735 1458 728 790 1154 1750 1929 2035 2305 2517 2394 2117 2163 2191 2796 2350 1925 1504 888 618 423 376 639 760 964 999 1722 1332 1384 1260 1279 1373 1456 1558 1586 1703 1833 2004 2461 2474 2361 2346 2307 2211 2266 2502 2683 2688 2640 2625
429 536 624 662 741 745 878 905 1026 1071 1058 1056 1034 1104 1189 1242 1325 1404 1483 1439 1526 1601 1651 1654 1648 1669 1703 1692 1572 1625 2201 1661 1524 1511 1488 1460 1292 988 970 1517 2101 2146 2192 2496 2509 2373 2309 2230 2211 2204 2502 2095 1542 1266 1103 427 342 452 718 847 926 1319 1386 1244 1240 1823 1515 1505 1472 1545 1617 1658 1784 1932 2169 2272 2252 2186 2174 2149 2364 2649 2860 2780 2862
409 526 616 650 689 720 804 926 994 1074 1080 1092 1089 1071 1152 1224 1309 1404 1426 1400 1462 1538 1593 1616 1635 1636 1582 1614 1837 2038 2579 1824 1575 1455 1326 1450 1204 1204 1458 1942 2373 2326 2507 2530 2475 2537 2923 2474 2302 2199 2234 2134 2066 2164 2026 706 513 575 477 677 775 982 1180 1108 1441 1729 1637 1386 1430 1599 1361 1554 1577 1672 1822 1956 2096 2126 2124 2092 2049 1979 2178 2222 2641
392 500 610 657 685 708 784 874 1014 1036 1064 1095 1110 1059 1112 1196 1294 1388 1462 1441 1403 1469 1519 1556 1538 1493 1637 1930 2244 2362 2492 2114 1710 1509 1308 1630 1414 1539 1837 2087 2429 2528 2506 2433 2432 2214 2077 2486 2337 3113 2194 1772 2116 2348 2074 897 366 856 1626 561 667 786 901 1047 1334 1333 1697 1454 1410 1753 1793 1578 1511 1553 1571 1726 1884 1982 2055 2049 1998 1963 1934 1906 1991
341 406 517 642 688 724 846 862 989 1005 1026 1063 1127 1125 1056 1167 1236 1315 1381 1414 1367 1364 1467 1514 1473 1450 1764 2137 2452 2439 2391 2216 2001 1585 1366 2283 1618 1722 1953 2154 2423 2490 2450 2340 2242 1952 2283 2835 2543 2943 2488 1096 898 683 1014 513 365 504 446 528 537 586 1292 1499 1056 1194 1263 1448 1349 1446 1809 1850 1754 1577 1672 1620 1732 1855 1996 2043 1971 1917 1900 1947 1864
327 435 513 597 686 742 848 878 980 1013 1004 1040 1134 1165 1017 1090 1154 1250 1285 1302 1272 1284 1355 1401 1432 1603 1912 2236 2537 2437 2331 2233 2310 1792 1875 2110 1704 1876 2022 2141 2300 2416 2402 2307 1886 2495 2905 2608 2383 2026 2052 1587 1084 776 457 229 214 240 365 385 510 566 1455 2658 1622 1392 1252 1173 1267 1438 1512 1734 1818 1802 1750 1733 1828 1907 1954 1996 2020 1955 1933 1858 1853
290 421 487 546 644 740 864 891 991 1030 1030 1040 1081 1113 1087 1066 1088 1126 1155 1138 1144 1193 1230 1277 1609 1678 1966 2260 2554 2440 2318 2280 2263 2209 1970 2023 1814 1922 2042 2114 2193 2338 2347 2116 1743 1920 1995 2390 2328 1857 1642 1541 1698 1069 331 286 273 524 361 431 176 353 910 329 592 978 1068 1063 1048 1194 1364 1537 1754 1942 1950 1985 2006 2101 2084 2128 2144 2117 2052 1948 1906
267 342 458 527 601 706 844 915 991 1037 1054 1038 1037 1068 1071 1057 1058 1014 1009 1005 1010 1074 1105 1176 1431 1673 2013 2207 2459 2509 2338 2340 2210 2165 2110 1998 1877 1926 1924 2046 2103 2216 2224 2013 1503 1398 1475 2201 2493 3065 1752 1047 669 369 2044 654 414 245 352 403 356 67 338 464 200 468 526 788 725 854 1003 1248 1488 1648 1813 1942 1953 2075 2174 2202 2176 2271 2214 2146 2012
208 356 349 496 564 674 807 916 984 1024 1064 1086 1089 1075 1115 1051 1084 1000 972 946 832 869 1000 1092 1304 1718 1903 2136 2399 2561 2456 2364 2302 2101 2115 1973 1880 1836 1898 1990 2005 1994 1910 1621 1525 1563 1487 1798 2455 2515 2262 1362 902 951 1111 1274 401 669 344 222 408 457 323 234 40 449 232 463 548 557 698 983 927 1178 1474 1562 1602 1686 1759 1925 2168 2198 2272 2242 2126
241 354 386 434 513 626 777 891 960 1012 1038 1093 1111 1119 1115 1100 1073 987 952 918 778 760 874 990 1159 1517 1964 1954 2245 2454 2567 2438 2368 2130 2040 1986 1995 2007 2022 1984 1850 1656 1945 1616 1534 1707 1928 2087 2297 2353 2302 1946 1223 840 768 1324 862 1473 208 210 263 352 296 141 72 438 249 674 664 906 810 548 690 847 1040 1071 1089 1186 1452 1638 1837 2019 2135 2215 2227
414 398 412 348 401 556 726 862 944 984 1001 1050 1135 1140 1150 1101 1006 941 881 819 729 749 803 923 1052 1341 1704 1821 2006 2292 2544 2508 2536 2214 1947 1824 1804 1902 1931 1877 1763 1626 2339 1768 1711 1917 2010 2132 2332 2388 2338 2430 1471 1168 1020 836 484 977 1063 860 1289 1372 62 430 426 242 618 537 344 378 534 676 547 475 534 563 645 731 942 1105 1366 1502 1808 1986 2102
494 448 440 313 348 526 653 801 897 954 985 1001 1068 1113 1121 1083 969 882 860 791 691 685 760 880 969 1411 1618 1776 1829 2164 2414 2527 2568 2414 2157 1922 1728 1635 1854 1996 1941 1795 2383 2346 2015 1994 2373 2553 2814 2421 2408 2657 1732 1466 1307 1689 608 218 2274 1774 1405 777 276 117 84 349 396 352 546 164 326 404 476 501 546 490 511 543 640 806 843 988 1278 1469 1722
545 523 476 410 367 429 601 709 826 910 968 977 1010 1074 1068 1045 936 876 842 798 748 704 769 798 1006 1629 1538 1660 1761 1933 2226 2435 2519 2488 2341 2069 2366 1870 1880 2008 2034 2059 2951 2664 2385 2358 2554 2622 2584 2605 2449 2448 2153 1906 1584 1460 803 525 1398 1152 662 450 363 357 547 511 695 446 387 379 408 319 458 506 421 379 466 413 475 610 646 815 1100 1382 1321
591 562 518 351 324 400 570 640 727 816 878 946 990 1043 1064 996 932 904 784 688 688 717 757 706 944 1333 1471 1554 1705 1800 2006 2250 2398 2477 2406 2310 2469 2376 2032 2021 2063 2065 2815 2873 2680 2638 2652 2677 2682 2534 2403 2362 2300 2241 1911 1718 1436 1050 1495 2120 1752 343 248 228 123 44 293 405 404 454 385 341 585 740 692 772 876 967 661 496 530 567 805 1051 1050
615 581 501 464 257 415 517 541 669 725 772 837 904 973 991 939 974 944 560 318 664 754 755 636 897 1140 1309 1373 1556 1691 1819 2057 2223 2355 2406 2353 2380 2636 2458 2190 2144 2561 2923 2923 3003 2878 2691 2634 2608 2612 2592 2507 2332 2399 2857 2448 2009 2036 2105 2085 1847 1114 138 173 274 175 128 513 502 460 542 521 577 694 941 829 1421 1283 906 703 645 632 734 746 1029
Wind_Speed
7 7 10 7 5 6 5 5 7 7 7 7 6 5 4 4 4 4 4 3 3 3 3 3 4 4 4 4 5 5 5 4 4 3 3 2 2 2 3 3 3 2 0 2 3 4 3 4 5 5 6 7 8 8 9 9 9 9 9 8 8 7 4 3 3 2 1 1 2 2 1 1 1 0 2 1 4 3 2 3 2 4 5 1 2
9 8 6 6 8 7 7 7 9 9 9 9 7 6 5 5 4 4 4 4 4 4 5 5 5 5 5 4 4 4 4 4 3 2 2 2 1 2 2 2 3 1 3 5 5 6 5 4 6 6 6 7 8 8 9 9 9 8 7 7 5 4 3 3 2 1 1 2 2 2 2 1 1 1 1 1 2 2 2 3 2 4 6 1 2
5 6 8 9 10 10 10 9 11 11 11 9 7 6 6 5 5 5 6 6 7 7 7 6 6 6 5 5 4 3 3 3 3 2 2 2 2 3 4 5 3 2 5 6 7 6 5 5 7 6 5 7 8 8 9 10 8 6 6 4 4 4 5 3 1 1 2 3 4 3 3 3 2 2 2 1 2 2 4 2 2 1 4 2 2
5 7 7 8 10 12 11 8 8 8 9 8 7 6 7 7 7 8 8 8 8 8 7 7 6 5 5 4 4 3 2 2 2 0 1 2 3 5 6 3 3 5 6 6 8 9 7 5 5 6 6 6 9 8 9 10 8 6 5 4 7 7 6 5 4 4 4 5 7 8 9 9 5 3 3 3 3 5 3 2 2 1 2 1 3
6 6 7 7 8 6 6 4 4 3 7 8 8 8 8 9 10 10 10 9 8 7 6 6 6 5 4 4 4 4 4 3 2 0 3 5 6 6 3 3 4 4 7 6 6 7 8 6 4 5 7 6 9 9 9 7 7 5 4 5 4 4 4 4 3 4 4 7 10 11 12 11 10 3 2 3 5 5 3 2 1 1 2 2 3
8 7 8 7 6 7 6 6 6 7 9 10 10 10 11 11 11 10 9 8 8 7 6 6 6 6 5 5 5 5 4 3 2 3 4 6 8 6 4 3 3 4 6 8 7 5 5 6 5 5 5 4 7 8 6 5 5 4 4 4 4 1 1 2 4 6 10 11 12 13 12 12 11 8 5 5 5 4 2 1 1 1 2 2 4
9 8 8 6 7 10 15 15 14 13 12 11 11 11 12 11 10 9 9 8 7 7 7 7 7 6 6 6 6 5 4 4 4 4 7 8 5 6 5 3 4 5 5 5 6 5 5 6 7 5 6 6 5 6 5 3 2 2 2 7 2 1 2 3 7 10 11 12 13 13 12 12 12 9 5 4 4 3 3 2 2 3 3 3 3
7 7 8 7 7 13 16 15 14 12 12 11 11 11 10 9 9 9 9 9 8 8 7 7 8 7 7 6 6 5 4 4 5 6 7 6 6 5 4 5 5 5 4 2 5 5 4 3 7 9 8 6 5 2 3 3 5 1 1 2 1 2 5 7 8 10 13 12 13 12 11 11 10 8 3 3 4 2 2 4 3 3 3 3 3
7 6 7 7 9 10 9 9 10 11 11 11 10 10 9 9 10 10 9 8 8 8 8 8 7 7 6 5 4 4 3 4 5 7 7 6 5 6 5 5 6 6 3 1 4 4 6 7 6 7 7 3 3 2 1 2 3 1 0 1 2 4 6 8 10 13 13 13 12 11 10 9 9 7 3 3 2 1 1 1 2 4 3 3 3
6 6 6 7 10 8 7 8 8 10 10 10 10 10 10 10 10 9 8 7 7 7 8 7 7 5 5 4 3 2 2 3 5 7 6 6 6 6 6 7 5 5 4 2 2 2 2 3 3 4 9 8 4 3 3 3 4 4 4 2 2 4 6 8 11 13 13 13 11 10 9 7 8 8 3 2 3 2 1 1 2 2 2 3 4
6 6 7 8 10 7 7 8 9 9 10 10 10 10 10 10 9 8 7 7 7 7 7 7 6 5 4 3 2 2 1 3 5 7 6 6 7 7 8 7 6 5 4 3 2 3 3 3 4 5 1 4 4 3 5 5 4 4 6 5 2 5 8 10 13 14 14 12 11 9 7 6 8 9 1 2 2 2 2 3 3 3 3 3 3
6 6 7 8 7 7 7 8 9 10 10 10 10 10 9 9 9 8 7 7 7 7 7 6 5 4 2 2 2 1 1 3 6 5 5 5 7 7 5 5 3 4 4 3 1 4 5 7 7 5 6 7 5 5 8 6 6 5 7 5 5 6 7 11 13 14 14 13 12 12 11 9 6 4 3 3 3 3 4 4 3 4 4 3 4
6 6 6 8 7 6 7 7 8 9 10 9 9 8 8 7 7 7 7 7 6 6 6 5 5 4 3 3 2 2 1 4 6 5 5 6 6 6 5 3 2 3 6 6 2 5 4 1 3 4 4 9 7 8 7 8 7 9 7 4 4 5 7 10 14 13 13 13 12 12 11 10 5 2 3 3 3 4 4 4 4 4 4 4 4
5 6 7 7 8 6 7 7 8 8 8 8 8 8 7 7 7 6 6 6 6 5 5 5 5 4 4 3 3 2 0 2 3 4 5 5 6 5 4 4 3 4 5 5 5 3 1 1 5 5 5 5 8 9 6 7 9 8 7 4 3 5 7 10 12 13 12 11 11 10 9 7 4 1 2 3 4 4 4 4 4 4 3 3 3
4 5 6 7 8 6 7 7 7 7 8 8 8 8 7 7 7 6 6 6 5 5 5 5 5 5 4 4 4 1 1 1 2 3 4 5 5 6 6 5 5 7 6 6 5 3 1 3 4 5 6 5 7 8 7 8 8 6 5 5 5 6 7 12 12 12 12 10 9 7 6 4 1 2 3 4 4 5 5 4 4 3 2 2 4
3 4 6 7 8 6 5 4 6 7 8 8 8 7 7 7 6 6 7 6 6 6 5 5 6 5 5 5 4 3 3 3 4 5 5 2 3 4 6 8 6 8 6 6 5 2 3 3 5 6 5 5 7 8 7 7 6 5 5 5 3 4 5 8 11 11 10 9 7 6 5 3 3 4 5 5 5 5 4 3 2 2 3 5 7
3 4 6 8 7 6 5 5 4 6 7 7 7 7 7 6 6 6 7 7 6 6 7 7 8 7 7 6 5 5 4 5 6 7 7 7 5 4 6 7 7 6 6 6 5 4 4 3 4 5 5 6 6 7 5 5 6 4 4 3 2 3 4 6 8 9 8 5 5 6 5 5 4 5 5 5 4 3 3 2 3 5 6 8 9
3 4 7 9 8 7 5 6 5 5 7 7 6 6 6 6 6 6 7 7 8 7 8 9 9 9 9 6 7 7 5 6 8 7 7 7 8 7 6 6 7 7 7 7 5 1 2 5 8 7 7 5 6 6 5 4 3 2 2 1 1 3 3 3 5 5 3 3 5 6 7 5 5 5 5 4 3 3 4 5 6 8 9 9 9
4 4 8 9 9 7 6 6 6 5 7 9 8 7 7 6 6 6 7 8 9 9 10 10 10 11 10 9 9 8 8 7 8 9 8 7 8 9 9 9 8 8 7 7 7 5 3 2 4 5 6 8 6 5 4 2 2 2 1 0 1 2 2 3 4 4 3 5 7 8 7 6 6 6 5 5 5 6 7 8 9 9 9 9 9
5 5 8 11 10 8 7 7 6 6 8 9 8 9 7 7 6 7 8 9 11 11 11 11 12 11 11 10 9 11 11 11 9 11 11 9 9 10 9 9 10 9 7 6 6 5 6 2 3 2 3 7 6 3 4 2 1 2 2 1 1 1 6 7 5 5 6 7 8 10 9 8 8 8 8 8 9 10 10 10 10 9 9 8 9
4 5 8 11 11 8 7 7 6 6 7 9 8 8 9 7 7 7 8 10 11 12 10 10 11 11 10 9 12 13 14 14 13 13 11 11 10 9 9 6 8 9 7 5 5 4 4 6 5 3 3 4 3 3 4 4 4 5 4 2 1 7 9 8 7 8 9 10 11 12 11 12 11 11 11 11 11 11 10 9 10 10 10 10 10
4 4 6 9 11 10 7 6 6 5 7 9 8 8 10 9 10 10 10 10 14 9 10 11 12 14 9 13 14 14 14 14 14 13 15 12 10 8 8 6 5 7 7 5 3 3 2 6 6 5 4 3 3 8 8 8 4 4 2 1 8 11 11 10 10 10 11 12 13 14 14 13 14 13 12 12 12 11 10 10 11 12 10 12 10
4 4 6 8 11 10 8 5 5 5 6 8 8 8 8 9 10 10 9 11 10 11 10 11 12 12 13 13 13 14 14 14 13 12 11 8 9 8 7 6 5 5 6 5 3 3 3 4 5 5 6 7 8 8 9 10 9 2 3 8 11 12 12 12 11 12 13 14 15 15 15 14 14 14 13 13 12 12 11 11 12 9 12 15 11
5 4 4 8 9 9 8 6 5 5 6 8 7 7 8 9 9 9 9 9 10 11 10 11 12 11 12 13 13 13 13 16 12 9 10 12 11 8 7 8 8 8 8 10 9 6 9 7 5 8 11 11 10 10 9 10 9 10 10 11 12 13 13 13 13 13 13 14 16 15 15 15 16 17 15 14 14 13 13 14 13 14 14 14 16
4 3 4 6 8 7 7 6 5 5 6 7 7 7 8 9 9 9 9 9 10 11 11 11 11 11 11 12 12 12 13 13 13 13 12 11 11 11 11 11 9 8 9 8 8 8 8 9 11 11 11 12 11 10 11 11 11 12 13 13 13 14 14 14 15 14 14 15 17 17 17 16 18 19 17 16 16 16 15 17 15 16 16 19 16
3 4 4 5 7 8 7 6 4 4 6 8 7 7 6 8 9 9 9 10 10 10 10 11 11 11 10 11 11 11 12 12 12 12 12 11 11 12 12 11 10 10 10 9 8 8 9 9 10 11 12 12 11 11 13 13 13 14 14 14 14 15 15 16 16 15 15 17 18 17 18 19 18 19 18 19 17 18 18 18 15 17 18 18 17
5 6 6 6 7 7 7 5 4 5 6 8 8 7 7 8 9 9 8 9 9 9 10 10 10 10 10 10 10 11 11 11 11 12 12 12 12 13 13 12 11 11 12 11 11 10 10 10 11 12 13 13 13 13 14 15 15 14 14 14 15 15 16 16 16 16 16 18 19 18 20 20 20 20 19 20 20 19 20 19 17 18 16 17 16
5 7 7 7 7 6 7 5 5 5 8 8 8 8 8 8 9 8 8 9 8 9 10 10 9 9 9 9 9 10 11 12 11 11 13 12 12 13 14 13 13 12 13 12 13 13 12 12 13 14 14 15 16 16 17 17 16 15 15 15 14 15 15 16 16 16 17 18 19 20 20 20 20 20 20 20 21 19 19 19 19 17 16 16 16
4 6 7 6 7 6 5 4 4 4 7 8 7 8 8 8 8 8 8 8 8 8 9 8 8 8 8 8 9 9 11 11 11 11 12 12 12 13 13 13 14 13 14 14 13 15 15 15 15 16 16 17 18 19 18 19 18 17 15 14 14 14 15 16 16 16 17 17 18 20 19 19 20 20 20 20 20 19 18 18 18 17 17 16 17
5 6 6 7 6 6 5 3 3 5 7 7 8 7 8 7 8 8 8 7 8 7 7 8 8 7 7 8 9 9 10 11 11 12 11 12 12 13 13 14 14 14 14 15 15 16 18 18 18 18 18 19 19 20 19 18 19 17 15 14 14 15 15 15 16 16 16 16 17 18 20 19 20 20 20 19 19 18 18 17 17 18 18 18 19
3 5 6 7 7 6 5 5 4 4 7 8 7 7 7 7 7 7 8 7 7 7 8 8 8 8 8 8 9 10 10 11 10 11 12 11 12 13 14 13 14 15 15 16 17 18 18 19 19 19 20 20 20 20 19 18 18 16 16 14 15 14 14 15 15 15 15 16 16 17 18 19 19 19 19 18 18 17 18 17 18 18 19 19 21
3 5 6 7 7 6 5 5 3 5 7 8 7 7 8 8 7 7 7 7 6 7 8 9 9 9 9 9 9 10 11 11 10 11 11 11 12 13 13 13 15 15 15 17 17 17 18 19 19 19 19 18 19 19 18 17 18 16 14 14 14 14 14 14 14 14 15 15 15 16 16 17 19 18 18 17 17 17 17 18 19 19 20 21 22
4 3 4 4 5 6 6 5 4 5 7 7 7 8 8 8 7 7 7 7 6 6 8 10 10 10 9 9 10 11 11 10 11 11 12 11 11 12 14 14 14 14 15 16 17 16 16 17 18 17 16 15 17 18 16 15 16 16 15 13 14 14 13 13 13 13 14 14 14 15 15 16 16 18 18 17 18 17 18 19 20 20 22 22 23
2 3 3 3 6 9 9 8 5 4 6 9 8 8 8 8 7 7 7 6 6 6 8 9 10 10 9 9 10 11 10 10 10 11 11 11 11 12 13 14 13 14 14 14 15 15 15 16 16 16 15 15 17 16 16 17 15 15 15 13 13 14 13 13 13 13 13 13 13 13 15 15 15 14 15 17 18 18 19 20 20 21 22 23 23
2 1 2 2 4 9 10 9 6 5 6 8 8 8 8 7 6 6 6 6 6 6 7 8 9 9 9 9 9 10 9 10 10 10 12 11 11 11 12 13 12 12 13 14 14 14 14 15 14 15 15 14 14 15 15 17 15 14 14 13 13 13 13 13 13 13 13 13 12 13 14 15 14 14 14 13 15 18 20 21 22 22 23 24 24
2 1 1 2 5 8 9 8 7 5 7 8 8 8 7 6 6 6 6 5 6 7 7 8 9 9 9 9 9 9 8 9 9 9 11 11 11 12 12 11 12 12 12 13 13 13 13 13 14 13 15 14 12 13 14 15 14 13 13 13 12 13 12 13 13 13 13 12 14 14 14 14 14 14 14 13 13 16 21 22 23 24 25 25 25
2 1 1 2 5 8 9 8 6 5 6 8 8 8 8 7 5 5 4 5 6 7 8 8 8 9 9 10 9 9 8 8 8 8 9 10 10 12 12 10 10 10 11 11 11 11 11 12 13 13 12 14 10 11 12 12 12 12 12 12 12 12 13 13 13 13 12 13 14 14 14 14 15 17 15 16 17 17 19 23 24 26 27 26 26
2 2 1 1 2 7 8 9 9 6 7 8 8 8 7 6 6 5 5 5 6 7 8 8 9 9 9 10 9 9 8 7 8 7 8 8 8 9 10 9 9 9 10 10 10 9 10 9 12 12 11 11 9 10 11 10 9 9 11 12 12 13 13 13 12 12 12 14 14 14 14 13 14 14 15 16 17 18 19 21 23 25 26 27 26
2 2 1 2 5 7 9 9 9 8 8 9 9 8 7 7 6 5 5 5 6 7 8 9 9 9 10 9 8 9 8 7 7 6 6 7 6 6 6 7 7 8 8 8 9 9 9 9 10 11 10 9 9 10 9 7 7 8 9 12 12 14 13 12 12 12 12 14 14 14 13 14 14 15 15 16 16 18 20 20 20 21 20 24 26
3 2 1 2 4 7 10 10 9 9 11 11 10 9 8 6 5 7 6 6 6 6 8 10 9 9 10 9 9 8 8 7 7 5 5 5 5 5 4 5 5 6 7 7 9 8 8 9 8 9 10 9 7 7 6 4 6 6 7 9 11 12 13 12 12 12 12 14 14 14 15 14 14 15 16 15 15 18 20 20 20 19 19 21 25
3 3 2 0 2 5 9 9 10 10 12 12 11 10 8 7 7 5 5 5 5 6 7 10 10 10 9 9 9 8 6 6 6 5 5 5 4 4 4 5 5 6 6 7 8 7 6 6 7 7 7 8 8 8 6 4 4 7 9 8 9 10 12 11 12 12 13 13 13 14 14 14 14 15 15 14 16 18 18 18 17 17 18 18 20
2 3 4 2 1 3 6 9 12 12 13 12 12 11 9 6 5 4 5 4 4 4 6 9 9 9 9 8 8 8 6 6 6 5 5 4 4 5 6 6 6 6 7 8 7 7 7 6 6 6 6 5 6 6 7 5 6 5 7 9 11 11 11 10 11 13 13 13 14 15 14 16 16 15 14 15 17 17 17 17 16 17 17 18 19
6 6 6 4 2 1 5 10 12 12 13 13 13 11 9 6 3 4 2 3 4 4 5 7 8 8 9 8 8 7 6 7 6 5 5 5 5 6 7 6 7 7 7 9 9 9 7 7 7 6 8 5 5 5 4 5 4 6 5 7 8 11 11 11 11 13 13 14 14 15 15 16 17 15 14 15 16 16 15 15 16 17 17 18 20
3 4 5 5 1 0 4 9 12 12 14 13 11 10 8 5 3 3 2 1 2 3 5 8 8 8 9 9 9 7 6 6 6 6 6 6 6 7 6 6 7 8 8 8 9 10 8 8 6 6 6 8 8 7 6 5 3 4 9 8 9 nan 12 12 14 15 12 14 14 15 14 16 16 15 14 16 16 14 14 14 16 16 18 20 21
2 2 3 2 1 2 1 6 11 11 13 12 10 9 8 7 5 6 6 7 9 6 7 8 9 9 10 9 9 7 6 6 6 6 6 6 7 7 6 6 7 8 7 8 9 10 9 8 7 7 7 7 9 8 9 5 4 6 4 7 10 10 11 13 nan 15 13 15 13 14 15 16 16 16 16 16 15 14 14 15 15 16 19 21 21
1 1 2 3 2 2 1 4 10 12 12 11 9 8 7 6 6 5 5 6 7 7 5 6 8 8 9 9 8 7 5 6 6 7 8 7 7 7 6 6 7 8 7 8 8 9 9 9 8 7 7 8 7 6 9 9 6 5 5 6 8 8 12 12 nan 15 17 13 14 14 15 16 16 17 16 16 15 14 12 15 15 17 19 20 20
2 1 1 2 3 3 3 2 7 11 12 11 9 8 7 8 6 5 5 3 3 5 6 6 7 8 8 7 7 6 4 4 6 7 7 8 7 7 6 6 7 8 8 8 9 10 10 9 8 7 7 6 6 7 9 10 9 8 8 7 8 9 nan 10 13 12 16 17 14 14 15 14 16 17 16 15 14 14 14 14 16 17 18 18 19
2 0 1 1 1 2 1 0 6 10 12 11 9 8 8 8 7 6 5 4 3 3 4 6 8 9 8 6 6 6 4 5 6 7 7 8 7 7 7 7 7 8 9 9 10 10 9 9 8 7 6 7 7 8 9 9 9 9 9 9 10 9 10 11 nan 11 11 14 18 16 14 17 17 16 15 15 15 14 15 14 15 16 17 18 18
3 2 1 2 1 1 1 1 4 8 11 10 9 8 8 7 5 4 3 5 3 2 4 7 8 9 7 8 7 6 6 6 7 7 7 7 8 7 7 8 8 8 10 10 10 9 8 8 7 7 8 8 8 7 8 8 8 10 11 11 10 11 11 11 10 9 10 13 16 14 19 19 17 16 14 14 14 14 14 15 14 16 16 17 17
4 3 2 1 1 1 0 1 3 8 10 10 9 7 7 7 5 3 4 4 4 4 5 6 8 8 8 8 8 8 8 7 8 8 7 8 8 8 8 9 9 9 10 9 9 8 8 8 8 8 8 10 8 7 7 7 8 9 10 9 11 12 12 12 12 nan 11 9 13 18 18 19 20 19 16 15 15 14 14 13 13 14 15 15 15
4 6 5 2 2 1 1 1 3 7 10 10 9 6 7 6 4 2 4 3 3 3 5 7 9 10 9 9 8 8 9 9 10 9 8 8 8 8 9 10 9 10 9 9 9 9 9 9 9 8 8 9 8 7 8 8 9 10 10 10 10 11 12 13 14 13 12 13 15 17 18 16 17 19 17 17 17 15 13 11 12 12 13 13 13
Wind_Direction
78 75 90 19 22 13 6 360 349 340 333 326 322 319 321 331 339 345 339 325 320 325 330 331 340 339 344 358 1 2 2 1 7 20 28 39 65 91 107 119 99 88 165 254 265 275 282 288 273 278 280 278 278 280 285 287 290 292 301 311 313 311 293 248 244 241 216 172 185 170 149 147 333 209 243 332 317 332 311 254 193 129 113 137 240
33 55 84 59 5 17 16 9 355 347 342 334 332 334 339 346 349 346 336 340 347 349 355 350 345 341 342 347 351 352 354 357 9 19 39 41 79 121 131 133 197 258 300 307 309 303 298 288 290 290 288 283 281 286 290 296 295 297 301 301 305 290 261 243 253 278 131 138 153 198 195 190 215 328 347 353 302 283 271 254 226 123 115 252 258
45 39 63 46 13 14 16 12 358 349 339 333 331 337 343 350 347 350 354 356 358 360 353 346 338 333 336 341 342 337 333 347 3 42 65 96 138 167 186 219 252 290 297 310 311 308 308 315 309 298 293 295 289 291 299 297 288 290 288 273 258 236 215 190 205 230 199 172 164 186 206 202 187 185 271 311 273 250 245 254 261 184 110 262 261
41 76 75 56 11 9 13 10 360 343 324 321 332 344 350 350 354 357 360 360 359 355 348 338 331 330 332 324 310 301 307 317 347 47 139 151 174 185 205 219 280 297 299 317 322 317 297 306 309 306 302 298 300 297 299 297 296 288 274 245 223 202 186 185 195 202 200 176 179 163 133 128 145 204 214 233 272 272 283 275 257 254 262 267 289
32 70 80 84 78 43 20 354 17 340 320 323 341 352 354 355 357 359 357 354 354 350 339 331 323 322 317 306 299 299 295 302 320 286 193 201 200 202 203 231 258 291 301 307 298 303 315 313 303 302 308 319 314 314 302 295 288 277 266 242 236 215 169 163 193 197 201 197 177 147 132 133 129 181 225 237 245 246 243 256 238 288 302 314 292
25 51 65 71 73 54 19 19 13 4 347 341 351 355 355 355 354 352 349 349 350 342 334 328 325 325 316 310 307 289 292 287 278 250 230 219 212 205 218 252 269 282 292 298 301 314 315 299 292 294 301 329 315 300 303 295 274 281 268 252 223 227 156 211 200 201 200 186 168 137 139 140 136 141 220 239 266 273 288 294 356 326 319 315 299
18 54 67 53 52 19 8 7 8 4 349 349 353 353 354 352 348 343 345 350 349 340 333 330 325 321 325 315 299 296 290 293 282 263 252 245 227 226 206 233 262 253 262 288 302 308 305 314 303 312 333 341 307 309 320 316 276 321 244 233 142 228 222 210 207 197 185 155 138 139 138 148 150 143 211 245 264 286 301 339 359 352 329 316 321
33 59 75 67 56 18 6 359 358 350 349 351 353 352 351 346 345 347 350 354 350 343 341 335 328 332 320 308 298 293 290 279 268 264 263 283 273 241 233 217 230 260 267 302 316 317 293 275 325 325 329 309 288 290 302 335 354 191 262 304 73 224 229 212 200 188 181 146 140 138 140 148 150 142 196 225 243 278 356 357 357 320 301 321 336
40 64 86 84 78 12 359 346 347 346 346 350 352 351 350 349 350 352 355 353 348 347 346 339 332 324 319 306 298 292 284 284 277 264 262 264 267 276 265 240 225 230 238 299 305 300 320 331 327 324 278 278 343 6 341 149 149 38 355 254 228 220 217 203 186 176 153 139 141 138 143 143 141 129 138 253 286 317 340 19 300 295 314 336 347
50 76 93 95 95 19 353 346 348 346 346 349 350 351 352 354 355 356 356 355 350 352 353 345 335 331 322 316 305 297 310 281 261 262 252 258 255 249 236 233 230 224 196 183 235 254 293 323 331 308 326 4 16 40 69 90 91 118 114 166 203 212 206 191 178 163 141 139 140 139 134 139 126 120 69 293 271 288 321 339 59 17 22 335 325
61 84 105 106 94 16 354 347 346 346 350 352 353 354 355 356 356 357 359 3 2 4 359 348 346 346 334 325 338 322 327 285 265 254 244 235 241 233 230 229 202 190 144 149 175 239 192 179 185 235 344 50 33 66 79 70 63 90 113 120 184 195 185 175 161 139 136 136 135 134 133 140 116 100 179 237 261 269 277 283 290 304 311 319 327
62 94 110 107 64 6 0 349 348 349 353 355 357 358 1 0 360 1 5 10 11 11 5 357 355 351 355 8 15 5 87 248 250 255 243 227 226 236 222 224 189 143 120 109 149 240 225 187 160 179 133 92 90 93 85 72 78 88 102 122 171 176 178 170 141 132 131 131 130 128 129 129 130 142 225 244 261 273 275 279 289 298 314 323 337
70 98 112 109 101 19 3 354 350 354 356 359 1 7 11 10 10 10 13 16 15 20 17 12 10 12 29 43 36 30 49 229 233 225 210 203 204 212 216 237 200 121 133 135 190 239 237 240 133 109 91 100 91 75 75 82 76 85 87 120 153 168 172 162 132 130 128 131 131 135 134 131 135 191 249 266 272 273 278 297 314 317 320 335 357
79 106 120 118 106 20 3 354 355 357 1 9 15 21 21 24 21 20 22 24 28 31 32 30 30 35 49 48 49 42 315 249 241 212 211 181 195 195 189 182 143 122 108 130 201 234 250 41 66 76 61 63 100 99 90 87 81 77 92 109 138 161 170 148 140 130 132 134 133 132 132 125 119 166 278 292 294 299 312 319 320 324 333 355 26
58 103 123 123 112 95 6 357 1 2 9 19 29 31 29 32 31 25 29 32 40 47 47 45 48 53 59 61 51 7 75 88 178 187 199 185 184 178 165 157 151 128 131 150 190 194 86 92 120 109 84 74 76 81 83 78 73 80 100 124 153 165 168 131 131 132 134 135 131 129 123 108 334 1 321 329 330 329 326 323 325 339 360 41 64
69 107 135 133 127 116 103 20 4 9 20 28 36 36 35 35 37 37 37 41 50 60 66 66 63 67 70 66 58 50 59 103 136 162 168 180 176 155 158 145 138 123 143 148 193 154 113 88 61 62 91 96 85 76 62 70 87 103 125 132 144 176 179 145 132 137 135 133 126 111 95 52 356 1 352 344 342 337 333 335 350 29 50 62 65
89 123 143 143 138 131 124 120 66 19 35 37 40 40 42 39 43 47 53 53 57 67 74 75 76 73 73 66 59 59 78 114 130 139 144 149 149 161 141 136 119 132 147 150 168 170 135 111 95 103 99 79 79 78 75 92 88 93 106 121 161 213 197 165 134 134 133 131 106 94 71 63 29 8 355 346 346 351 358 26 55 68 68 69 71
111 131 147 150 145 141 143 132 113 120 108 73 50 43 49 48 47 59 68 68 68 71 78 80 80 75 73 73 78 82 88 101 111 117 130 140 148 144 125 114 143 144 146 155 166 200 158 194 138 118 117 108 92 95 75 60 85 128 143 136 237 249 232 185 132 125 128 111 94 83 79 25 25 12 1 5 13 33 55 68 75 74 73 71 74
123 135 150 153 149 149 154 147 136 133 112 118 119 85 54 60 58 61 70 76 77 72 77 80 79 78 75 74 79 85 95 105 112 123 131 142 144 143 145 147 146 154 159 160 166 181 195 287 83 106 125 116 109 113 109 116 131 141 141 345 267 288 260 128 111 111 103 93 89 85 67 42 38 27 29 39 52 65 71 76 76 77 78 77 79
131 141 148 153 152 158 157 154 146 140 129 133 115 115 83 68 65 65 69 73 75 70 73 74 75 77 79 85 90 106 110 115 131 130 143 152 147 135 142 156 156 155 158 164 167 178 171 152 62 44 90 104 116 119 115 117 57 66 75 349 25 180 111 100 98 100 95 85 85 84 71 59 51 53 55 59 64 66 69 70 72 71 77 91 97
124 134 144 154 156 160 159 156 152 147 140 133 131 129 106 77 86 70 76 73 76 72 69 80 84 85 99 102 108 113 116 119 122 123 132 137 149 149 148 157 161 150 152 158 160 172 169 120 120 112 68 78 109 124 113 86 51 30 37 38 78 100 96 95 91 93 96 91 88 86 79 73 67 66 65 65 64 66 65 70 79 81 85 80 85
83 122 134 148 159 158 157 153 156 155 143 137 129 121 115 115 121 119 113 106 90 86 107 111 111 115 108 107 110 107 109 113 119 127 131 137 141 147 144 152 150 147 144 157 156 152 110 99 100 113 106 123 152 123 117 100 53 38 43 71 95 91 89 90 90 88 91 91 91 91 82 73 74 70 68 67 69 72 76 78 80 84 93 92 87
60 105 131 147 159 158 152 150 152 153 148 139 133 124 121 119 112 115 113 101 107 119 113 117 116 110 112 113 110 109 108 107 105 112 125 149 141 143 139 133 138 135 157 160 160 142 115 86 120 124 138 143 124 111 111 109 114 128 87 88 85 85 84 82 82 85 88 89 93 83 78 76 76 75 73 77 80 84 85 82 84 92 93 87 90
55 73 110 152 157 154 149 144 137 150 149 141 135 126 120 117 109 118 123 120 121 116 116 115 112 112 111 110 111 112 113 113 110 128 132 127 130 146 153 151 165 173 165 147 159 176 162 165 154 137 126 121 123 123 116 111 102 95 87 80 79 79 81 81 80 82 87 92 93 90 86 88 94 87 82 81 84 85 86 86 86 97 87 86 79
77 104 128 145 149 141 139 134 141 149 152 133 126 123 122 117 117 120 123 124 119 117 112 110 111 111 109 109 112 115 118 115 114 116 117 119 120 121 124 126 130 135 148 147 143 138 141 136 128 128 125 123 122 118 113 104 91 85 80 80 79 81 83 82 84 83 84 88 93 90 91 89 91 94 91 86 83 86 87 87 91 80 80 86 84
114 129 121 142 142 138 131 134 132 138 148 143 127 116 117 119 117 113 118 119 117 114 110 108 110 110 105 106 112 116 119 116 118 119 119 117 120 117 117 116 123 123 126 127 131 133 131 125 124 122 118 115 113 110 106 98 92 85 80 81 82 86 88 88 87 83 85 92 94 90 93 96 90 92 95 96 92 89 91 91 87 91 88 83 83
107 136 142 138 144 135 128 127 124 145 152 146 135 135 130 123 120 113 112 110 114 113 111 110 107 103 107 106 107 111 111 110 114 117 119 118 116 113 111 111 111 112 112 116 121 118 118 117 115 115 112 113 113 110 101 96 92 85 84 81 86 89 91 89 89 85 90 94 96 87 92 92 92 91 93 93 95 99 96 93 90 82 85 86 86
130 142 138 129 135 128 137 116 131 136 154 145 141 138 134 127 109 109 119 104 112 116 115 110 103 103 105 106 106 106 102 106 108 113 111 114 114 111 107 109 105 102 100 100 111 111 111 110 110 110 112 110 108 107 101 96 93 87 84 86 86 90 91 92 91 91 92 93 98 90 89 91 91 92 91 92 94 94 93 90 92 88 84 88 87
100 132 136 119 124 135 126 111 113 130 151 146 141 142 134 130 123 126 113 106 118 118 114 112 101 102 105 102 101 102 105 102 105 105 107 109 110 110 108 102 100 98 97 99 102 107 107 107 106 105 104 104 103 102 101 98 97 93 89 87 87 88 88 90 90 89 91 94 95 95 86 90 93 93 93 95 96 92 87 87 85 87 88 87 88
98 138 139 127 130 143 134 131 131 136 147 147 144 137 128 127 128 122 113 113 116 119 116 115 107 101 102 104 99 96 92 91 97 102 102 106 108 109 106 103 101 98 96 97 96 99 101 102 102 102 102 102 101 100 100 97 96 96 93 89 87 85 86 86 88 90 91 92 94 94 86 86 89 91 93 95 97 95 89 84 84 85 86 87 91
118 130 142 137 135 139 142 164 159 141 159 152 143 136 131 129 125 128 120 124 118 122 120 114 112 108 104 101 96 92 92 90 94 97 102 102 105 105 104 103 99 96 92 93 92 94 96 95 97 99 101 103 102 101 101 101 99 96 93 91 89 88 87 89 89 90 90 92 93 94 98 87 86 89 92 95 94 94 94 91 89 90 91 92 93
85 114 142 153 141 131 146 166 166 152 157 159 144 135 132 130 129 135 123 128 121 120 116 111 106 106 107 98 98 92 92 94 94 99 100 101 103 104 104 102 95 94 92 90 94 94 95 97 98 98 99 100 101 101 99 96 97 96 94 93 91 90 89 89 88 87 88 90 93 96 98 101 90 88 92 91 90 90 90 91 92 92 95 97 97
124 139 156 151 139 141 148 159 175 163 161 158 155 150 146 137 137 128 129 130 119 117 110 104 102 103 103 99 99 96 94 90 91 93 96 98 101 103 103 100 98 98 95 93 94 98 100 102 104 104 104 103 103 105 103 100 97 96 94 92 92 91 91 89 88 86 85 89 93 97 100 101 105 100 91 89 90 87 87 90 91 94 97 98 99
131 158 165 132 159 159 158 163 169 168 158 165 165 159 148 144 141 137 133 132 121 106 102 102 102 100 98 96 95 96 97 95 95 99 102 100 103 107 109 109 107 103 102 99 101 101 102 104 106 108 108 107 105 107 109 110 104 99 95 93 93 92 90 88 87 87 88 89 93 96 98 101 103 102 104 95 88 89 91 92 94 97 99 99 97
155 145 76 116 170 166 162 161 162 173 169 167 164 160 155 148 142 137 134 128 119 105 104 104 102 101 101 97 93 93 97 95 100 101 102 101 101 106 112 114 118 113 109 106 103 102 102 105 105 109 107 108 109 110 110 105 99 95 94 94 91 93 92 91 91 90 89 90 92 91 95 100 100 99 98 98 99 95 94 96 99 101 100 98 95
35 70 137 161 167 172 163 160 171 178 172 169 168 162 155 150 147 140 142 127 116 108 110 109 107 106 102 100 95 95 95 97 99 100 103 104 104 106 111 121 123 126 122 119 112 112 110 108 104 100 109 106 111 111 114 106 97 96 99 97 97 92 93 95 93 93 91 89 87 87 91 95 98 99 97 99 101 102 98 100 102 102 99 95 92
6 356 50 150 170 176 168 165 168 171 177 172 172 168 162 157 153 142 136 123 111 107 113 117 113 106 104 101 99 98 96 96 99 101 103 106 108 110 115 117 124 123 127 127 122 119 117 115 109 100 96 99 106 103 107 106 98 101 102 99 99 97 93 92 93 93 91 83 84 87 90 93 96 93 95 95 97 99 100 102 104 101 97 92 89
359 11 38 64 166 183 175 168 170 174 181 178 173 167 161 166 160 144 143 117 101 109 117 119 111 106 104 100 99 99 98 94 98 100 103 107 109 109 115 117 119 126 128 133 128 129 124 119 114 110 103 101 111 115 120 122 115 110 105 103 103 99 97 98 99 93 88 86 85 87 91 98 97 95 96 96 96 96 100 101 98 97 93 88 86
355 9 53 149 186 189 185 176 179 175 180 185 180 173 173 174 171 156 145 125 117 115 118 116 113 112 104 101 101 101 101 95 95 94 95 104 110 114 118 116 120 122 127 135 141 141 138 132 115 117 114 105 105 105 112 113 130 123 117 113 109 107 110 109 104 98 90 85 87 90 96 96 95 93 94 94 94 97 99 100 97 94 89 86 85
349 357 20 178 185 192 190 189 187 179 183 188 186 179 179 175 172 171 160 141 129 125 120 114 118 111 109 106 103 103 103 104 96 93 90 94 100 110 123 129 126 136 139 139 138 139 138 145 141 137 135 131 129 111 103 121 137 147 128 126 113 104 102 105 105 98 96 89 89 96 96 97 92 92 92 92 95 98 100 99 97 92 87 82 82
343 346 347 88 202 202 199 193 194 188 184 186 181 180 180 180 179 159 141 148 139 133 124 121 117 115 112 108 108 110 109 109 104 93 89 94 108 128 137 132 138 141 142 136 144 144 151 145 136 136 137 140 135 131 130 138 145 133 136 138 124 112 105 97 95 96 92 91 94 96 98 97 94 92 93 97 99 101 100 98 93 88 83 82 83
360 340 1 18 283 227 204 200 203 191 185 184 180 176 176 173 184 165 168 167 149 123 116 119 113 121 115 112 116 117 116 110 109 99 100 97 117 118 114 115 118 126 134 146 146 147 159 153 149 144 136 139 132 128 126 141 149 116 123 125 130 127 116 109 104 98 93 91 91 93 94 94 93 90 94 100 103 101 97 95 91 86 82 81 84
353 355 6 4 359 257 203 208 204 196 188 187 183 173 175 175 174 178 164 178 142 122 124 125 128 128 126 128 131 125 122 115 107 106 106 108 107 106 103 116 117 123 130 130 141 145 144 148 159 156 136 143 138 126 143 140 122 119 113 119 129 139 126 128 115 108 101 95 96 94 94 93 90 91 98 105 104 100 95 92 88 84 83 83 85
2 7 2 0 15 103 210 211 207 197 191 188 181 175 176 173 162 176 152 161 123 157 171 166 153 154 141 145 139 128 120 118 115 113 120 111 105 101 120 124 120 120 119 121 128 127 123 124 136 146 144 142 156 142 144 136 116 98 124 129 116 nan 133 123 126 117 111 107 100 95 95 93 93 97 105 104 101 98 94 88 83 82 84 86 86
31 22 355 360 117 19 243 220 214 202 192 189 183 183 181 175 174 188 187 182 182 199 202 176 158 151 157 149 130 122 117 121 122 121 121 111 111 116 120 128 122 119 124 121 117 114 116 117 114 129 135 139 144 140 132 134 124 120 97 119 129 133 112 114 nan 116 124 114 102 100 96 94 98 107 110 107 105 98 92 86 82 83 86 87 86
62 51 342 358 21 30 350 227 214 205 195 188 186 183 169 160 169 188 188 177 171 189 183 164 160 151 139 151 145 119 117 128 131 128 124 124 110 112 125 131 122 126 125 123 121 119 112 107 108 114 121 121 133 141 130 141 144 127 119 116 112 125 122 121 nan 125 124 110 114 107 99 99 108 113 112 109 103 100 92 89 88 88 89 88 86
74 173 260 352 27 29 12 270 217 205 197 189 188 180 170 163 160 165 178 179 160 162 180 169 155 147 158 156 131 128 121 135 137 133 126 119 119 123 126 122 124 127 130 131 119 113 113 113 116 110 111 127 132 131 121 128 139 138 129 125 120 118 nan 128 127 124 135 127 125 119 113 120 121 118 113 107 105 102 95 92 93 93 93 90 85
357 245 223 251 29 56 30 232 208 206 196 192 188 177 172 176 178 172 172 161 128 147 190 177 170 169 162 149 153 144 142 146 150 142 134 127 128 130 129 128 130 137 132 126 119 124 125 123 116 114 120 119 115 130 129 129 129 121 125 133 133 137 134 132 nan 127 119 122 127 126 116 123 128 119 116 114 108 100 99 95 94 94 93 88 81
341 346 263 233 191 135 90 155 193 203 197 196 192 180 181 190 189 176 141 135 142 179 200 192 183 175 159 168 164 165 172 157 157 149 140 135 131 129 132 133 139 141 135 134 131 130 123 121 121 121 119 122 120 130 137 128 122 118 134 140 140 139 135 137 130 132 125 126 121 123 126 132 133 128 124 115 109 105 102 101 98 97 93 88 81
333 328 343 260 232 209 130 135 162 190 199 199 198 192 190 201 204 173 104 128 156 189 210 199 186 180 166 170 173 178 180 169 155 152 144 138 134 136 138 134 136 145 142 138 139 135 129 123 121 121 126 120 126 125 127 128 120 122 130 139 137 135 139 136 146 nan 136 132 122 130 132 136 139 129 129 129 123 115 111 108 106 102 98 94 89
313 338 0 359 274 233 213 113 142 184 199 201 205 209 204 206 206 168 112 132 163 207 213 193 191 185 175 176 182 177 181 174 172 155 143 142 136 137 138 137 144 146 146 146 137 133 133 130 135 132 126 120 124 129 129 132 127 124 133 134 129 124 132 140 134 132 129 130 139 134 135 132 126 133 127 135 130 129 125 121 112 106 98 97 90